This is the latest recevied weather packets stored in our database for station/object OM8AKX-4. If no packets are shown the sender has not sent any weather packets the latest 10 day(s).
| Time | Temp. | Humidity | Pressure | Rain* | Wind** | Luminosity | Snow |
|---|---|---|---|---|---|---|---|
| 1777231968 | -0.56° C | 53% | 879.9 hPa | - | - | - | - |
| 1777231068 | -0.56° C | 53% | 879.4 hPa | - | - | - | - |
| 1777230167 | 0° C | 52% | 879.5 hPa | - | - | - | - |
| 1777229268 | 0° C | 51% | 879.4 hPa | - | - | - | - |
| 1777228367 | 0° C | 51% | 879.2 hPa | - | - | - | - |
| 1777227467 | 0° C | 51% | 879 hPa | - | - | - | - |
| 1777226566 | 0.56° C | 50% | 878.8 hPa | - | - | - | - |
| 1777225820 | 0.56° C | 50% | 878.5 hPa | - | - | - | - |
| 1777224920 | 0.56° C | 49% | 878.3 hPa | - | - | - | - |
| 1777224020 | 1.11° C | 49% | 878.3 hPa | - | - | - | - |
| 1777223120 | 1.11° C | 49% | 878.2 hPa | - | - | - | - |
| 1777222220 | 1.67° C | 49% | 878.3 hPa | - | - | - | - |
| 1777221320 | 1.67° C | 50% | 878 hPa | - | - | - | - |
| 1777220420 | 1.67° C | 50% | 877.6 hPa | - | - | - | - |
| 1777219519 | 1.67° C | 50% | 877.6 hPa | - | - | - | - |
| 1777218620 | 1.67° C | 50% | 877.5 hPa | - | - | - | - |
| 1777217720 | 2.22° C | 50% | 877.5 hPa | - | - | - | - |
| 1777216820 | 2.22° C | 49% | 877.6 hPa | - | - | - | - |
| 1777215920 | 2.22° C | 50% | 877.6 hPa | - | - | - | - |
| 1777215020 | 2.22° C | 49% | 877.2 hPa | - | - | - | - |
| 1777214119 | 2.78° C | 48% | 877 hPa | - | - | - | - |
| 1777213219 | 2.22° C | 46% | 877.1 hPa | - | - | - | - |
| 1777212319 | 2.78° C | 47% | 876.9 hPa | - | - | - | - |
| 1777211419 | 2.78° C | 45% | 876.7 hPa | - | - | - | - |
| 1777210519 | 2.78° C | 45% | 876.4 hPa | - | - | - | - |
* Rain since midnight (hover to see other rain measurements)
** Current wind speed in m/s (hover to see current wind gust speed)